OSCAR 23 (KITSAT 1)

导读

OSCAR 23(别名KITSAT 1)是韩国(KR)研制的首颗国产卫星,于1992年8月10日发射升空。该卫星定位为技术演示与业余无线电通信卫星,重量约110千克,运行在近地轨道。它不仅验证了韩国自主卫星技术,还承载了空间环境探测任务,并为全球业余无线电爱好者提供转发服务,是韩国航天起步的标志性项目。

基本信息
目录编号:
22077
目录名称:
OSCAR 23 (KITSAT 1)
国际标识:
1992-052B
轨道中心:
EARTH
卫星名称:
OSCAR 23 (KITSAT 1)
卫星全名:
--
卫星状态:
在轨 (已飞行12391 天)
发射日期:
1992-08-10 UTC
国别 :
韩国 (KR)
星等 :
--
轨道信息
数据来源 国际轨道数据
星历时间: 2026-07-13T18:30:20+0800
20小时前
查看轨道信息
半长轴: 7693.13km
偏心率: 0.0015761
轨道倾角: 66.082°
近地点辐角 276.534°
升交点赤经 226.115°
平近点角 183.562°
近地点: 1302.867km
远地点: 1327.119km
周期: 111.922分钟
每日圈数: 12.866138
详细信息
使用方式:
暂无
2D轨道图
3D轨道图
轨道高度分析图
轨道倾角分析图
轨道综合分析图
查看轨道综合分析图